www.pogodaiklimat.ru

Погода и климат >> Архив погоды >> Россия >> Чукотка >> Валькаркай


ПОГОДА в Валькаркае

  • Прогноз погоды в Валькаркае
  • Монитор погоды в Валькаркае

АРХИВ ПОГОДЫ в Валькаркае

Время (UTC), дата Ветер
(напр.,м/с)
 
Видим.   Явления Облачность Т
(С)
Тd
(С)
f
(%)
Тe
(С)
Тes
(С)
Комфортность P
(гПа)
Po
(гПа)
Тmin
(С)
Tmax
(С)
R
(мм)
R24
(мм)
S
(см)
00 16.09 В 9-12
{12}
20 км 8/0
[Ac trans Ci fib]
+3.2 +1.7 90 -4 -4 1014.3 1013.8
03 16.09 В 12-15
{16}
800 м туман 9/0
[Ac trans]
+2.4 +2.1 98 -6 -6 1015.4 1014.9
06 16.09 В 11-15
{16}
800 м туман 9/0
[Ac trans]
+2.4 +2.1 98 -6 -6 1016.4 1015.9
09 16.09 В 13-16
{18}
20 км {туман} 6/3 200 м
[St Ac trans]
+2.4 +1.9 96 -6 -6 1017.3 1016.8 +3.5
12 16.09 В 13-16
{17}
20 км {туман} 3/3 200 м
[St]
+1.6 +1.1 96 -7 -7 1018.4 1017.9
15 16.09 В 10-15
{17}
20 км 3/3 200 м
[St]
+1.3 +0.8 96 -7 -7 1019.7 1019.2
18 16.09 В 13-16
{16}
600 м туман ?/? +0.6 +0.6 100 -9 -9 1020.0 1019.5
21 16.09 В 13-15
{17}
800 м туман ясно +1.2 +0.9 98 -8 -8 1020.5 1020.0 +0.3
00 17.09 В 10-13
{15}
20 км {туман} 3/3 200 м
[St]
+2.0 +1.5 96 -6 -6 1020.7 1020.2
03 17.09 В 11-14
{14}
20 км 3/3 200 м
[St]
+1.8 +0.7 92 -6 -6 1020.5 1020.0
06 17.09 В 12-15
{17}
20 км 3/3 200 м
[St]
+1.2 +0.4 94 -7 -7 1020.2 1019.7
09 17.09 В 12-15
{17}
20 км 3/3 200 м
[St]
+0.8 +0.3 96 -8 -8 1020.2 1019.7 +2.1
12 17.09 В 9-11
{15}
20 км 3/3 200 м
[St]
+0.5 -0.1 96 -7 -7 1020.6 1020.1
15 17.09 В 10-12
{14}
20 км в посл. час туман 3/3 200 м
[St]
+0.4 -0.2 96 -8 -8 1019.6 1019.1
18 17.09 В 12-16
{16}
20 км {туман} 6/6 200 м
[St]
+0.1 -0.2 98 -9 -9 1019.0 1018.5
21 17.09 В 8-11
{16}
20 км 4/4 200 м
[St]
+1.2 -0.5 88 -6 -6 1018.7 1018.2 -0.2
00 18.09 В 7
{12}
20 км 4/4 300 м
[St]
+2.3 -0.7 81 -4 -4 1018.2 1017.7
03 18.09 В 6
{10}
900 м туман ?/? +0.6 +0.6 100 -6 -6 1017.5 1017.0
06 18.09 В 5
{8}
20 км в посл. час туман {ливн. осадки} 9/9 200 м
[Cb cap]
-0.1 -0.4 98 -6 -6 1016.9 1016.4
09 18.09 В 6
{7}
20 км в посл. час ливневой снег 8/8 200 м
[Cb cap]
+0.1 -0.2 98 -7 -7 1016.6 1016.1 +2.5 0.1
12 18.09 В 5
{11}
10 км слаб. ливневой снег 9/9 200 м
[Cb cap]
0.0 -0.6 96 -6 -6 1016.9 1016.4
15 18.09 СВ 5
{8}
20 км {ливн. осадки} 9/9 200 м
[Cb cap]
-0.1 -0.7 96 -6 -6 1017.2 1016.7
18 18.09 СВ 6
{7}
20 км {ливн. осадки} 10/10 300 м
[Cb cap]
+0.2 -0.4 96 -7 -7 1017.1 1016.6
21 18.09 С 5
{8}
20 км {ливн. осадки} 9/8 200 м
[Cb cap Ac trans]
+0.3 -0.5 94 -6 -6 1016.8 1016.3 -0.3 0.1
00 19.09 С 3
{7}
20 км {ливн. осадки} 9/8 200 м
[St Ac trans]
+0.5 -0.1 96 -4 -4 1017.1 1016.6
03 19.09 С 6
{8}
20 км 10/10 200 м
[St]
+0.8 0.0 94 -6 -6 1016.9 1016.4
06 19.09 С 7
{9}
10 км слаб. ливневой снег 10/10 200 м
[Cb cap]
+0.5 -0.1 96 -7 -7 1016.9 1016.4
09 19.09 С 6
{11}
20 км в посл. час ливневой снег 10/10 200 м
[Cb cap]
+0.7 -0.4 92 -6 -6 1016.9 1016.4 +1.1 0.6
12 19.09 С 10-12
{13}
20 км {ливн. осадки} 10/10 200 м
[Cb cap]
+1.1 0.0 92 -7 -7 1016.8 1016.3
15 19.09 С 7
{12}
20 км 10/10 200 м
[St]
+0.7 -0.4 92 -6 -6 1017.1 1016.6
18 19.09 С 4
{10}
20 км {ливн. осадки} 10/10 200 м
[Cb cap]
+0.2 -0.4 96 -5 -5 1017.3 1016.8
21 19.09 С 5
{8}
20 км {ливн. осадки} 10/10 200 м
[Cb cap]
-0.1 -0.7 96 -6 -6 1017.0 1016.5 -0.3 0.3
00 20.09 С 6
{8}
20 км {ливн. осадки} 9/8 200 м
[Cb cap Ac trans]
+0.1 -1.3 90 -7 -6 1016.6 1016.1
03 20.09 С 4
{8}
20 км {ливн. осадки} 9/8 300 м
[Cb cap Ac trans]
+0.2 -1.2 90 -5 -5 1016.2 1015.7
06 20.09 С 5
{6}
20 км {ливн. осадки} 9/8 300 м
[Cb cap Ac trans]
+0.2 -1.2 90 -6 -6 1015.5 1015.0
09 20.09 С 4
{6}
20 км 9/8 300 м
[Cb cap Ac trans]
+0.1 -0.8 94 -6 -6 1014.8 1014.3 +0.4 0.1
12 20.09 СЗ 5
{7}
20 км в посл. час ливневой снег 10/10 300 м
[Cb cap]
-0.1 -0.7 96 -6 -6 1013.7 1013.2
15 20.09 С 5
{9}
20 км в посл. час ливневой снег 10/10 200 м
[Cb cap]
-0.4 -0.7 98 -7 -7 1012.0 1011.5
18 20.09 СЗ 5
{8}
10 км слаб. ливневой снег 9/8 200 м
[Cb cap Ac trans]
-0.3 -0.9 96 -7 -7 1010.7 1010.2
21 20.09 СЗ 6
{8}
20 км в посл. час ливневой снег 9/8 300 м
[Cb cap Ac trans]
0.0 -1.2 92 -7 -7 1009.6 1009.1 -0.5 0.6
00 21.09 С 5
{8}
20 км в посл. час ливневой снег 9/8 200 м
[Cb cap Ac trans]
0.0 -1.8 88 -6 -6 1008.5 1008.0
03 21.09 С 4
{8}
20 км 10/10 200 м
[Cb cap]
-0.4 -1.3 94 -6 -6 1007.4 1006.9
06 21.09 С 6
{8}
20 км в посл. час ливневой снег 10/10 200 м
[Cb cap]
-0.4 -1.0 96 -7 -7 1006.8 1006.3
09 21.09 СЗ 5
{9}
4000 м слаб. ливневой снег 10/10 200 м
[Cb cap]
-0.8 -1.4 96 -7 -7 1006.4 1005.9 +0.4 0.4
12 21.09 СЗ 5
{6}
20 км в посл. час ливневой снег 10/10 200 м
[Cb cap]
-0.1 -1.0 94 -6 -6 1005.9 1005.4
15 21.09 СЗ 6
{7}
20 км в посл. час ливневой снег 10/10 200 м
[Cb cap]
+0.1 -0.5 96 -7 -7 1005.2 1004.7
18 21.09 З 6
{8}
6000 м слаб. ливневой снег 10/10 200 м
[Cb cap]
+0.2 -0.1 98 -7 -7 1004.5 1004.0
21 21.09 СЗ 4
{8}
20 км {ливн. осадки} 10/10 200 м
[Cb cap]
+0.5 -0.1 96 -5 -5 1004.1 1003.6 -0.8 2 2
00 22.09 СЗ 4
{5}
20 км в посл. час ливневой снег 9/8 200 м
[Cb cap Ac trans]
+0.8 +0.3 96 -5 -4 1004.1 1003.6
03 22.09 З 5
{6}
10 км слаб. ливневой снег 10/10 200 м
[Cb cap]
+1.0 +0.5 96 -5 -5 1003.7 1003.2
06 22.09 СЗ 5
{7}
9000 м слаб. снег 10/10 200 м
[Frnb]
+0.4 -0.2 96 -6 -6 1003.2 1002.7
09 22.09 СЗ 5
{6}
500 м туман {снег} ?/? +0.8 +0.8 100 -5 -5 1002.5 1002.0 +1.1 1
12 22.09 СЗ 4
{6}
20 км в посл. час туман 10/10 200 м
[St]
+1.1 +0.6 96 -4 -4 1002.1 1001.6
15 22.09 С 5
{7}
20 км 10/10 200 м
[St]
+0.9 +0.4 96 -5 -5 1001.4 1000.9
18 22.09 СВ 3
{6}
20 км 10/10 100 м
[St]
+0.7 +0.4 98 -4 -4 1001.7 1001.2
21 22.09 СВ 4
{5}
20 км в посл. час туман 10/10 240 м
[St]
+0.5 -0.1 96 -5 -5 1002.5 1002.0 +0.2 0.4

 

Местоположение метеостанции Валькаркай (Чукотка, Россия): широта 70.08 долгота 170.90 высота над уровнем моря 6 м.

В архиве по умолчанию представлена погода в Валькаркае за последнюю неделю. Архивные данные за месяц целиком и за предыдущие месяцы, начиная с января 2011 года, Вы можете получить, выбрав интересующий диапазон дат из раскрывающегося списка и нажав кнопку "Ввод!".


*Определитесь, кто Вы:
робот инопланетянин человек

Внимание! Время в таблицах - всемирное. Для получения местного времени необходимо прибавить поправку, которая равна 12 ч.

Смотрите также архив погоды в соседних городах и на ближайших метеорологических станциях:

Погода в Певеке (Чукотка, Россия) (50 км)
Погода на 21 км (Чукотка, Россия) (50 км)
Погода на Айон Острове (Чукотка, Россия) (115 км)
Погода в Комсомольской (Чукотка, Россия) (129 км)
Погода в Чауне (Чукотка, Россия) (134 км)
Погода в Паляваам-Глубокой (Чукотка, Россия) (163 км)
Погода в Раучуе (Чукотка, Россия) (181 км)
Погода на Мысе Биллингс (Чукотка, Россия) (184 км)
Погода в Майской (Чукотка, Россия) (196 км)
Погода в Билибино (Чукотка, Россия) (288 км)

Пояснения к столбцам:

Ветер - указаны скорость ветра в м/с - средняя за 10 мин, порывы в срок и между сроками (в фигурных скобках) и направление, откуда дует ветер: С - северный, СВ - северо-восточный, В - восточный, ЮВ - юго-восточный, Ю - южный, ЮЗ - юго-западный, З - западный, СЗ - северо-западный.
Видимость - горизонтальная дальность видимости в метрах или километрах. При видимости от 1 до 10 км при отсутствии осадков обычно наблюдается дымка, при ухудшении видимости до 1 км и менее - туман. В сухую погоду видимость может ухудшаться дымом, пылью или мглою.
Явления - указаны атмосферные явления, наблюдавшиеся в срок или в последний час перед сроком; фигурными скобками обозначены явления, наблюдавшиеся между сроками (за 1-3 часа до срока); квадратными скобками обозначены град или гололедные отложения с указанием их диаметра в мм.
Облачность - указаны через наклонную черту общая и нижняя облачность в баллах и высота нижней границы облаков в метрах; квадратными скобками обозначены формы облаков: Ci - перистые, Cs - перисто-слоистые, Cc - перисто-кучевые, Ac - высококучевые, As - высокослоистые, Sc - слоисто-кучевые, Ns - слоисто-дождевые, Cu - кучевые, Cb - кучево-дождевые. Подробнее классификацию облаков см. в Атласе облаков (PDF).
T - Температура воздуха - температура, измеренная на высоте 2 м над землей.
Td - Температура точки росы - температура, при понижении до которой содержащийся в воздухе водяной пар достигнет насыщения.
f - Относительная влажность воздуха - влажноcть воздуха, измеренная на высоте 2 м над землей.
Te - Эффективная температура - температура, которую ощущает одетый по сезону человек в тени. Характеристика душности погоды. При расчете учитывается влияние влажности воздуха и скорости ветра на теплоощущения человека.
Tes - Эффективная температура на солнце - температура, которую ощущает человек, с поправкой на солнечный нагрев. Характеристика знойности погоды. Зависит от высоты солнца над горизонтом, облачности и скорости ветра. Ночью, в пасмурную погоду, а также при ветре 12 м/с и более поправка равна нулю.
P - Атмосферное давление - приведенное к уровню моря атмосферное давление.
Po - Атмосферное давление - измеренное на уровне метеостанции атмосферное давление.
Tmin - Минимальная температура - минимум температуры воздуха на высоте 2 м над землей.
Tmax - Максимальная температура - максимум температуры воздуха на высоте 2 м над землей.
R - Количество осадков - Количество выпавших осадков за период времени, мм. При наведении курсора мыши на число - период времени, за который выпало указанное количество осадков.
R24 - Количество осадков - Количество выпавших осадков за 24 часа, мм.
S - Снежный покров - Высота снежного покрова, см. При наведении курсора мыши на число - состояние снежного покрова и степень покрытия местности в баллах.